Wind_Speed
11 10 12 7 9 6 8 6 7 3 3 7 5 8 7 9 13 15 17 20 21 23 25 27 29 31 33 35 36 36 35 34 33 31 28 26 25 22
12 14 12 12 13 8 9 9 9 10 3 17 14 9 8 8 10 13 16 20 22 26 27 28 30 31 34 36 38 40 41 40 39 37 35 32 30 27
16 11 18 12 16 12 8 12 12 11 12 16 15 16 18 18 18 21 23 25 22 22 26 28 30 33 35 36 37 40 40 42 44 44 41 39 36 33
17 16 13 13 13 15 17 14 11 10 10 15 19 22 21 19 21 22 24 26 25 26 26 28 30 32 34 34 34 38 37 36 39 42 47 45 43 39
20 20 20 19 19 16 16 15 15 16 19 20 21 18 19 24 28 28 27 27 26 25 27 27 26 32 33 36 39 39 39 40 38 38 39 40 47 45
21 24 21 21 22 21 21 22 20 20 20 20 21 23 23 24 22 17 19 25 25 20 26 34 33 28 26 30 32 30 30 32 38 42 42 41 35 41
25 24 24 24 23 23 22 20 19 21 19 19 20 19 16 20 24 24 22 23 30 28 29 23 28 31 29 27 29 31 29 30 33 31 31 35 38 35
26 27 24 24 28 29 28 26 25 26 26 20 19 19 22 23 22 24 26 23 15 20 21 33 27 27 27 27 30 33 34 31 33 32 31 33 31 37
28 27 26 25 28 28 29 30 32 32 33 34 30 29 26 31 27 26 23 23 23 29 27 29 25 24 28 25 22 38 29 23 27 33 32 25 27 32
30 30 29 29 28 23 28 30 29 30 29 30 32 31 28 26 28 29 29 28 28 30 23 20 25 27 24 32 31 20 27 31 28 33 30 32 29 25
35 32 27 30 32 31 31 30 27 24 20 20 23 27 30 29 28 31 28 22 20 22 23 20 16 23 24 26 18 26 31 31 27 25 26 27 31 28
31 34 35 39 36 26 28 30 28 29 26 25 25 26 23 23 27 26 28 21 18 13 9 16 17 16 10 10 29 26 26 26 36 25 23 25 25 24
29 28 31 35 36 37 39 39 34 32 25 23 23 22 23 21 21 25 21 18 19 17 22 15 13 17 15 24 23 22 31 28 31 26 32 28 26 25
28 27 30 30 31 31 32 34 34 34 31 24 21 20 20 22 21 14 16 20 25 23 20 17 16 16 12 17 17 26 27 28 28 31 30 31 24 21
34 27 28 26 20 17 22 32 31 31 30 20 19 19 20 19 16 21 25 13 15 14 13 11 8 8 13 13 14 16 22 22 34 31 29 28 24 18
40 36 34 27 20 14 12 14 19 21 21 18 20 20 18 18 20 18 13 12 11 12 10 9 9 8 14 13 10 13 17 12 28 26 23 23 21 13
37 32 26 27 25 20 18 17 18 20 23 24 22 18 15 17 20 14 15 8 7 9 11 9 6 9 12 10 4 10 15 16 21 21 21 20 19 12
29 22 20 21 21 21 23 23 22 20 20 19 18 14 16 19 17 12 4 6 8 10 16 6 5 6 7 6 4 7 12 10 14 14 16 15 15 11
23 22 21 19 21 21 21 16 14 16 17 17 17 20 15 15 15 6 8 5 9 16 10 6 12 5 2 3 2 8 10 8 7 11 11 12 12 9
20 18 18 19 15 11 8 9 12 15 15 16 14 12 16 14 7 7 4 5 10 9 9 11 11 3 4 3 5 7 10 5 3 4 7 9 10 8
20 20 13 11 13 12 15 15 15 13 13 13 16 11 10 7 6 6 5 8 11 10 11 11 6 5 9 7 5 5 7 4 4 5 6 6 7 10
11 11 15 12 12 13 12 12 13 13 11 9 7 6 3 3 3 6 8 9 8 10 14 14 14 10 4 5 10 3 4 3 2 6 8 6 5 9
8 11 12 12 9 8 9 11 11 8 9 9 9 7 7 9 8 8 9 11 10 11 13 16 9 6 9 11 7 4 6 3 4 5 9 11 11 9
Wind_Direction
222 238 255 258 294 233 270 287 297 313 323 219 257 203 223 246 250 264 272 278 280 280 283 283 280 276 271 268 267 265 264 262 262 260 258 257 259 262
219 221 226 240 269 268 249 270 257 266 288 303 308 317 256 260 267 291 283 279 278 279 279 280 280 280 277 275 273 270 267 264 261 259 258 256 256 255
227 239 224 228 252 271 241 237 249 260 256 274 287 301 306 307 299 291 284 280 283 284 284 284 281 278 278 278 278 276 274 272 268 262 257 254 252 250
227 240 237 230 243 258 272 276 286 265 289 291 283 286 286 291 290 288 285 284 276 281 283 286 284 281 280 277 277 275 274 276 276 270 264 258 252 248
225 227 235 238 245 243 251 258 267 275 269 269 274 284 290 289 286 285 282 285 291 294 294 304 312 307 308 292 288 285 283 274 277 278 273 269 261 251
236 236 238 238 242 244 246 254 263 274 283 285 287 285 283 290 293 323 329 321 318 321 307 305 307 307 316 317 312 307 306 298 284 277 275 272 265 260
237 238 239 242 246 248 245 248 251 256 261 267 269 277 302 312 318 318 319 319 307 308 306 310 307 306 303 302 302 302 301 301 306 301 292 277 268 262
233 239 243 245 248 247 247 249 251 259 268 277 285 286 287 295 299 308 304 302 302 313 308 306 307 301 302 305 307 304 302 311 316 315 312 297 280 274
232 234 240 245 248 250 250 250 253 256 260 265 265 268 274 279 286 286 286 286 291 297 300 294 309 310 311 314 315 317 324 322 318 318 314 310 303 282
232 235 236 240 246 256 246 245 251 254 258 260 262 270 276 283 283 285 286 287 293 296 300 303 311 308 316 313 320 323 320 322 320 316 309 308 305 295
229 234 237 241 244 247 252 256 257 256 260 273 276 282 291 288 284 279 276 281 282 290 302 312 310 317 315 313 326 335 329 330 337 334 318 308 302 300
232 236 241 244 243 246 246 249 252 257 262 267 270 276 280 280 282 278 283 272 280 297 296 318 309 330 317 321 330 333 341 332 329 335 334 326 302 301
229 235 238 243 247 249 248 249 248 256 259 263 271 278 281 278 274 280 279 275 273 269 293 305 296 313 314 318 327 338 343 342 348 342 339 339 327 317
230 235 240 246 251 253 251 250 252 252 253 262 267 265 264 270 275 266 266 280 287 286 297 302 296 311 326 324 327 333 346 346 351 357 352 352 351 344
232 238 248 257 260 263 253 253 253 253 253 248 254 256 258 266 264 280 290 291 299 305 312 288 300 308 333 319 332 346 351 347 358 359 356 358 4 5
235 235 241 251 262 255 249 237 234 238 241 240 249 253 260 262 280 291 279 282 301 310 310 314 305 333 338 327 346 356 6 1 0 5 3 13 18 20
228 231 238 242 248 247 243 236 240 237 239 242 248 254 254 273 285 275 270 271 299 308 307 296 310 349 340 328 8 1 17 14 13 14 24 31 26 37
210 216 224 228 232 233 234 237 234 230 234 242 243 242 261 273 265 269 250 308 295 294 285 275 310 346 321 350 14 16 19 15 13 20 27 46 41 38
192 199 217 223 221 225 227 224 218 221 234 244 244 265 255 257 263 272 269 268 291 282 277 355 328 278 325 332 309 359 10 7 9 27 40 58 72 54
196 203 212 222 226 208 215 227 229 237 246 252 243 234 249 255 269 275 271 275 282 319 337 328 311 41 48 341 308 302 322 352 27 50 73 87 89 88
220 225 239 225 215 215 207 205 207 212 214 228 236 240 260 253 260 267 277 281 274 290 286 281 252 317 329 311 286 247 274 301 199 216 172 146 131 144
228 206 205 213 213 208 204 211 199 190 190 215 239 228 223 214 260 291 266 265 274 277 284 291 283 269 287 282 287 239 204 306 250 229 213 222 182 175
207 181 164 172 165 163 180 183 184 206 210 199 190 223 244 245 233 269 259 287 257 266 266 267 263 280 242 270 254 193 192 246 292 253 245 242 244 239
Height
866 867 867 867 868 869 869 870 870 871 869 867 866 865 865 865 864 864 864 863 862 861 860 858 856 854 851 848 847 846 847 847 848 849 850 851 851 852
864 865 866 867 866 868 868 868 869 869 868 866 865 865 863 863 862 862 861 860 858 856 854 851 848 845 842 840 838 838 838 837 838 840 841 843 844 847
862 863 863 864 864 864 866 866 866 866 866 865 864 862 861 861 860 859 856 853 851 849 846 844 841 838 835 833 831 829 829 829 828 828 829 831 834 837
858 860 861 862 862 862 861 862 863 864 864 862 861 861 859 857 855 853 849 846 845 844 841 838 834 830 827 825 822 820 820 819 818 818 819 820 822 826
855 855 857 858 859 859 860 860 861 861 860 860 857 856 855 853 850 847 845 842 841 838 834 832 829 825 821 818 815 814 811 811 810 809 810 809 811 815
850 851 852 853 854 855 855 856 857 857 857 856 855 853 851 848 845 844 843 841 838 836 832 830 825 821 817 814 810 808 805 802 800 800 798 797 800 802
846 847 848 849 849 850 851 852 853 853 853 852 850 849 847 845 844 842 839 837 833 832 827 824 820 817 812 809 805 802 799 796 794 791 789 787 788 790
840 842 843 844 844 845 846 847 848 848 848 848 847 845 844 844 842 840 838 833 828 828 823 818 815 810 807 804 800 796 793 791 788 785 782 779 778 781
833 835 837 838 839 839 840 840 841 842 842 843 841 840 839 839 838 835 833 830 826 822 821 813 811 806 804 800 796 793 789 786 782 779 774 772 770 770
826 828 830 831 832 833 833 834 834 834 834 835 834 833 833 832 832 829 827 824 821 817 816 811 807 802 799 796 792 790 786 781 778 774 769 766 763 763
818 820 822 823 824 827 828 828 828 828 829 828 828 827 826 826 825 823 821 820 816 813 812 809 804 800 796 791 789 788 784 779 773 769 765 761 758 756
812 812 814 816 818 820 820 821 821 821 822 823 823 823 822 820 819 818 816 813 813 810 809 807 802 801 792 789 789 784 781 775 770 765 760 755 752 749
803 804 805 807 809 811 812 812 812 814 816 817 816 816 816 814 813 811 811 809 807 806 804 804 799 798 797 791 785 784 780 774 768 762 757 752 748 744
795 796 798 799 799 800 802 803 805 808 810 811 811 811 810 808 807 806 805 805 803 801 800 800 797 797 794 791 787 782 778 774 769 762 756 750 745 741
786 790 791 792 794 795 795 797 800 802 803 805 805 804 804 803 801 801 801 798 798 797 796 795 794 793 793 791 788 785 780 775 771 765 758 752 747 743
778 781 783 786 787 788 789 791 793 795 797 798 798 797 798 796 796 796 795 796 795 795 795 794 791 790 790 789 788 786 784 781 774 768 763 758 753 749
768 773 776 778 780 782 784 785 787 789 791 791 792 793 792 792 792 791 792 791 792 792 792 792 789 789 787 786 786 785 783 781 777 773 767 764 761 756
762 767 769 771 772 775 777 779 781 782 784 786 787 787 789 789 787 788 788 788 790 790 789 789 787 787 786 785 785 784 782 782 780 776 773 771 769 766
753 758 761 763 764 767 769 771 774 777 780 781 781 783 784 785 785 784 785 786 787 787 786 785 785 784 783 784 784 782 782 782 781 779 776 775 775 773
749 751 753 757 758 759 761 765 769 772 775 777 778 779 781 781 781 782 783 784 785 785 783 783 782 781 782 783 783 780 780 779 780 780 779 778 778 778
744 745 750 750 754 758 758 762 765 769 770 773 776 775 777 777 778 779 780 781 782 782 781 780 779 779 779 780 780 779 778 778 778 779 779 780 780 781
738 738 740 746 753 758 757 760 761 763 767 770 772 771 771 773 775 777 778 778 779 779 778 777 776 776 777 777 777 777 777 778 778 778 779 780 779 780
735 737 740 745 752 756 759 759 761 763 765 767 766 769 770 772 773 774 775 775 774 774 774 772 772 772 772 773 773 774 775 776 776 777 777 776 777 777